DELTA 1 DEB, 7086

Orbit data source: Space-Track

DELTA 1 DEB, 7086 is space debris in SSO originally from a launch on Tue, 06 Nov 1973 UTC launched from the Air Force Western Test Range (AFWTR). Debris objects in space refer to the collection of defunct objects orbiting the Earth. Examples of debris include non-operational satellites, rocket bodies, and fragments generated from explosions, collisions, or faulty payload assembly.

Loading next visibility...
Identifier
7086, 1973-086CE
Orbit
SSO
Country
Flag of USUS
Related business
Manufacturer
Unknown
Mission
Spacecraft
Bus & Motor
Unknown
Mass
Unknown
Launch date (UTC)
1973-11-06 (52 years ago)
Launch vehicle
Unknown
Launch site
Air Force Western Test Range (AFWTR)
Object type
Payload
Rocket body
Debris
Shape & HBR
Unknown shape, 0.1 m
Radar Cross Section
Small (<0.1 m²)

Expand to show TLE details & history
Last TLE update: 1 day ago

TLE from 1 day ago
0 DELTA 1 DEB
1 07086U 73086CE  25291.87649141  .00000056  00000-0  75184-3 0  9993
2 07086 102.1169 259.8515 0013625 298.6358 133.5126 12.40929473351063
Epoch: 2025-10-18T21:02Z
TLE epoch observation values (Epoch: 2025-10-18T21:02:08.857Z)
Latitude
68.70621°
Longitude
-116.52615°
Altitude
1,521.777 km
Speed
7.107 km/s
True Right ascension
15h 06m 26s
True Declination
68° 36' 03"
Sunlit
Object was in daylight at epoch
Visualization orbit readout
Latitude
Unknown
Longitude
Unknown
Altitude
Unknown
Speed
Unknown
Apparent Right ascension
Unknown
Apparent Declination
Unknown
Sunlit
N/A
Visualization observer readout
Local Sidereal Time
01:36:49
Azimuth
Unknown
Elevation
Unknown
Doppler factor
Unknown
Orbital elements
Apogee altitude
1,510.98 km
Perigee altitude
1,489.512 km
Semi-major axis
7,878.383 km
Eccentricity
0.00136
Inclination
102.1169°
RAAN
259.8515°
Arg. of periapsis
298.6358°
True anomaly
133.6257°
Mean anomaly
133.5126°
Eccentric anomaly
133.56916°
Mean motion
3.10376 °/min
Orbital period
115.99 mins
BSTAR
0.00075184
Loading maneuver chart data...
Computing Atmospheric mass density...
Loading historical data...
Loading historical data...
Loading historical data...
Loading historical data...
Loading historical data...
Loading historical data...
Loading historical data...

Documentation

Showing up to 5 results
|